ONEWEB-0699, 61605

Orbit data source: Space-Track

ONEWEB-0699, 61605 is a payload satellite owned by Eut. One Web (UK) in LEO that was launched on Sun, 20 Oct 2024 UTC via an FALCON 9 launch vehicle from the Air Force Western Test Range (AFWTR). Payload-class satellites include a variety of spacecraft equipped with specific instruments for various scientific and technological missions. These include communications satellites like Starlink; space stations such as the ISS; scientific satellites like the Hubble; Earth observation satellites from companies like Planet Labs, Umbra, and HawkEye 360; GPS; miniature CubeSats for education and research; and military/defense satellites.

Loading next visibility...
Identifier
61605, 2024-188M
Orbit
LEO
Country
Flag of UKUK
Related business
Manufacturer
One Web
Mission
Operational Commercial Communications
Bus & Motor
ARROW, Unknown motor
Mass
148 kg wet, ~140 kg dry
Launch date (UTC)
2024-10-20 (1 year ago)
Launch vehicle
FALCON 9
Launch site
Air Force Western Test Range (AFWTR)
Object type
Payload
Rocket body
Debris
Shape & HBR
Trap Box + 2 Pan, 6.7 m
Radar Cross Section
3.464 m², Large (>1 m²)

Expand to show TLE details & history
Last TLE update: 13 hours ago

TLE from 13 hours ago
0 ONEWEB-0699
1 61605U 24188M   25306.35739536  .00000417  00000-0  11594-2 0  9992
2 61605  87.8799  81.4746 0002279  94.2233 265.9155 13.10376604 53609
Epoch: 2025-11-02T08:34Z
TLE epoch observation values (Epoch: 2025-11-02T08:34:38.959Z)
Latitude
0.00002°
Longitude
-89.06201°
Altitude
1,224.714 km
Speed
7.242 km/s
True Right ascension
05h 25m 53s
True Declination
0° 00' 00"
Sunlit
Object was in full shadow at epoch
Visualization orbit readout
Latitude
Unknown
Longitude
Unknown
Altitude
Unknown
Speed
Unknown
Apparent Right ascension
Unknown
Apparent Declination
Unknown
Sunlit
N/A
Visualization observer readout
Local Sidereal Time
17:15:40
Azimuth
Unknown
Elevation
Unknown
Doppler factor
Unknown
Orbital elements
Apogee altitude
1,220.554 km
Perigee altitude
1,217.091 km
Semi-major axis
7,596.959 km
Eccentricity
0.00023
Inclination
87.8799°
RAAN
81.4746°
Arg. of periapsis
94.2233°
True anomaly
265.88945°
Mean anomaly
265.9155°
Eccentric anomaly
265.90248°
Mean motion
3.27781 °/min
Orbital period
109.83 mins
BSTAR
0.0011594
Loading maneuver chart data...
Computing Atmospheric mass density...
Loading historical data...
Loading historical data...
Loading historical data...
Loading historical data...
Loading historical data...
Loading historical data...
Loading historical data...

Documentation

Showing up to 5 results
|